| time (UTC) | temp F | wind direction | speed knots | gust knots | rain 1hr in | rain 24hr in | rain mn in | humidity % | barometer mb |
| 20260904022133 | 78 | 97 | 0.0 | 1.7 | 0.00 | 0.70 | 0.70 | 91 | 1012.6 |
| 20260904015939 | 78 | 97 | 0.0 | 1.7 | 0.00 | 0.70 | 0.70 | 90 | 1012.6 |
| 20260904014437 | 78 | 97 | 0.0 | 1.7 | 0.00 | 0.70 | 0.70 | 90 | 1012.4 |
| 20260904012937 | 78 | 97 | 0.0 | 1.7 | 0.00 | 0.72 | 0.70 | 90 | 1012.3 |
| 20260904012132 | 78 | 97 | 0.0 | 2.6 | 0.00 | 0.73 | 0.70 | 90 | 1012.2 |
| 20260904005937 | 78 | 97 | 0.0 | 0.0 | 0.00 | 0.73 | 0.70 | 90 | 1012.2 |
| 20260904004437 | 78 | 97 | 0.0 | 0.0 | 0.00 | 0.73 | 0.70 | 90 | 1012.3 |
| 20260904003631 | 78 | 97 | 0.0 | 1.7 | 0.00 | 0.73 | 0.70 | 89 | 1012.4 |
| 20260904001436 | 79 | 97 | 0.0 | 1.7 | 0.00 | 0.73 | 0.70 | 90 | 1012.4 |
| 20260903235934 | 79 | 97 | 0.0 | 0.0 | 0.00 | 0.73 | 0.70 | 89 | 1012.6 |
| 20260903235130 | 78 | 97 | 0.0 | 2.6 | 0.00 | 1.17 | 0.70 | 90 | 1012.5 |
| 20260903232931 | 78 | 97 | 1.7 | 2.6 | 0.00 | 1.62 | 0.70 | 90 | 1012.6 |
| 20260903231432 | 78 | 97 | 0.0 | 2.6 | 0.00 | 1.62 | 0.70 | 90 | 1012.6 |
| 20260903225931 | 78 | 97 | 0.0 | 1.7 | 0.00 | 1.62 | 0.70 | 90 | 1012.5 |
| 20260903225140 | 78 | 97 | 0.0 | 2.6 | 0.00 | 1.69 | 0.70 | 90 | 1012.6 |
| 20260903222931 | 78 | 97 | 0.0 | 4.3 | 0.00 | 1.70 | 0.70 | 90 | 1012.7 |
| 20260903221431 | 78 | 102 | 0.9 | 2.6 | 0.00 | 1.80 | 0.70 | 90 | 1012.8 |
| 20260903220638 | 78 | 102 | 0.9 | 2.6 | 0.00 | 1.92 | 0.70 | 90 | 1013.0 |
| 20260903215128 | 78 | 102 | 0.9 | 2.6 | 0.01 | 1.92 | 0.70 | 91 | 1013.2 |
| 20260903212932 | 78 | 102 | 0.9 | 2.6 | 0.02 | 1.92 | 0.70 | 91 | 1013.4 |
| 20260903211431 | 77 | 102 | 2.6 | 4.3 | 0.04 | 1.92 | 0.70 | 90 | 1013.5 |
| 20260903205931 | 77 | 102 | 1.7 | 1.7 | 0.05 | 1.87 | 0.70 | 90 | 1013.8 |
| 20260903205126 | 77 | 102 | 0.9 | 2.6 | 0.09 | 1.87 | 0.69 | 90 | 1014.0 |
| 20260903202931 | 77 | 102 | 0.9 | 6.1 | 0.12 | 1.87 | 0.68 | 90 | 1014.1 |
| 20260903202121 | 77 | 104 | 0.9 | 4.3 | 0.13 | 1.87 | 0.66 | 90 | 1014.2 |
| 20260903195930 | 77 | 106 | 1.7 | 2.6 | 0.14 | 1.73 | 0.64 | 90 | 1014.0 |
| 20260903194431 | 77 | 106 | 1.7 | 1.7 | 0.11 | 1.73 | 0.60 | 90 | 1014.1 |
| 20260903192930 | 76 | 106 | 0.9 | 2.6 | 0.07 | 1.73 | 0.56 | 90 | 1014.3 |
| 20260903191430 | 76 | 107 | 1.7 | 4.3 | 0.06 | 1.73 | 0.53 | 90 | 1014.1 |
| 20260903185930 | 77 | 107 | 0.9 | 2.6 | 0.07 | 1.66 | 0.50 | 90 | 1014.4 |
| 20260903184429 | 77 | 107 | 1.7 | 4.3 | 0.10 | 1.66 | 0.49 | 89 | 1014.9 |
| 20260903182929 | 77 | 107 | 0.9 | 2.6 | 0.14 | 1.66 | 0.49 | 89 | 1015.0 |
| 20260903181428 | 77 | 107 | 0.0 | 1.7 | 0.15 | 1.66 | 0.47 | 89 | 1014.8 |
| 20260903175928 | 77 | 107 | 1.7 | 4.3 | 0.15 | 1.51 | 0.43 | 88 | 1014.8 |
| 20260903174429 | 78 | 100 | 2.6 | 4.3 | 0.27 | 1.51 | 0.39 | 88 | 1015.4 |
| 20260903172927 | 78 | 338 | 1.7 | 6.1 | 0.31 | 1.51 | 0.34 | 87 | 1015.4 |
| 20260903172130 | 78 | 338 | 0.0 | 7.8 | 0.28 | 1.51 | 0.32 | 86 | 1015.3 |
| 20260903165926 | 80 | 0 | 3.5 | 13.9 | 0.25 | 1.26 | 0.29 | 84 | 1015.0 |
| 20260903164427 | 84 | 243 | 2.6 | 11.3 | 0.08 | 1.26 | 0.12 | 78 | 1015.1 |
| 20260903162926 | 86 | 0 | 1.7 | 6.1 | 0.00 | 1.26 | 0.04 | 79 | 1014.6 |
| 20260903161426 | 86 | 149 | 0.9 | 4.3 | 0.00 | 1.26 | 0.04 | 78 | 1014.6 |
| 20260903155926 | 85 | 149 | 0.0 | 2.6 | 0.00 | 1.26 | 0.04 | 79 | 1014.6 |
| 20260903154426 | 85 | 149 | 1.7 | 4.3 | 0.00 | 1.26 | 0.04 | 80 | 1014.4 |
| 20260903152925 | 85 | 124 | 0.0 | 4.3 | 0.00 | 1.26 | 0.04 | 80 | 1014.5 |
| 20260903151425 | 85 | 121 | 0.0 | 2.6 | 0.00 | 1.26 | 0.04 | 83 | 1014.6 |
| 20260903145924 | 84 | 121 | 0.9 | 4.3 | 0.00 | 1.26 | 0.04 | 84 | 1014.8 |
| 20260903144424 | 83 | 121 | 1.7 | 7.8 | 0.00 | 1.26 | 0.04 | 84 | 1015.2 |
| 20260903142924 | 83 | 138 | 0.9 | 6.1 | 0.00 | 1.26 | 0.04 | 85 | 1015.2 |
| 20260903141424 | 83 | 152 | 1.7 | 2.6 | 0.00 | 1.26 | 0.04 | 88 | 1015.1 |
| 20260903141322 | 81 | 152 | 0.9 | 2.6 | 0.00 | 1.26 | 0.04 | 90 | 1014.9 |
| 20260903134423 | 80 | 152 | 0.0 | 1.7 | 0.00 | 1.26 | 0.04 | 91 | 1014.9 |
| 20260903132923 | 80 | 152 | 0.0 | 1.7 | 0.00 | 1.26 | 0.04 | 91 | 1014.8 |
| 20260903131422 | 80 | 152 | 0.0 | 1.7 | 0.00 | 1.26 | 0.04 | 91 | 1014.7 |
| 20260903125922 | 79 | 152 | 0.9 | 2.6 | 0.00 | 1.26 | 0.04 | 91 | 1014.7 |
| 20260903124422 | 79 | 152 | 0.0 | 1.7 | 0.00 | 1.26 | 0.04 | 91 | 1014.5 |
| 20260903122921 | 79 | 152 | 0.0 | 0.0 | 0.00 | 1.26 | 0.04 | 91 | 1014.2 |
| 20260903121421 | 79 | 152 | 0.0 | 1.7 | 0.00 | 1.26 | 0.04 | 91 | 1013.9 |
| 20260903115921 | 79 | 152 | 0.0 | 2.6 | 0.00 | 1.26 | 0.04 | 91 | 1013.8 |
| 20260903115112 | 79 | 152 | 1.7 | 1.7 | 0.00 | 1.26 | 0.04 | 91 | 1013.8 |
| 20260903112920 | 79 | 152 | 0.0 | 2.6 | 0.00 | 1.26 | 0.04 | 90 | 1013.8 |
| 20260903111419 | 79 | 152 | 0.9 | 1.7 | 0.00 | 1.26 | 0.04 | 90 | 1013.7 |
| 20260903105919 | 79 | 152 | 0.0 | 1.7 | 0.00 | 1.26 | 0.04 | 90 | 1013.7 |
| 20260903104419 | 79 | 152 | 0.0 | 2.6 | 0.00 | 1.26 | 0.04 | 90 | 1013.5 |
| 20260903102919 | 79 | 152 | 0.0 | 1.7 | 0.00 | 1.26 | 0.04 | 90 | 1013.5 |
| 20260903101419 | 79 | 152 | 1.7 | 4.3 | 0.00 | 1.26 | 0.04 | 90 | 1013.4 |
| 20260903100614 | 79 | 152 | 0.0 | 4.3 | 0.00 | 1.26 | 0.04 | 90 | 1013.5 |
| 20260903094418 | 79 | 152 | 0.0 | 2.6 | 0.00 | 1.26 | 0.04 | 90 | 1013.3 |
| 20260903092918 | 80 | 152 | 1.7 | 1.7 | 0.00 | 1.26 | 0.04 | 90 | 1013.3 |
| 20260903091417 | 79 | 152 | 0.0 | 1.7 | 0.00 | 1.26 | 0.04 | 90 | 1013.3 |
| 20260903085917 | 79 | 152 | 0.0 | 6.1 | 0.00 | 1.27 | 0.04 | 90 | 1013.4 |
| 20260903084417 | 80 | 152 | 1.7 | 6.1 | 0.00 | 1.27 | 0.04 | 90 | 1013.2 |
| 20260903082916 | 80 | 135 | 1.7 | 4.3 | 0.00 | 1.27 | 0.04 | 90 | 1013.2 |
| 20260903081416 | 80 | 141 | 3.5 | 9.6 | 0.00 | 1.27 | 0.04 | 90 | 1013.1 |
| 20260903081310 | 80 | 151 | 1.7 | 9.6 | 0.00 | 1.27 | 0.04 | 91 | 1013.1 |
| 20260903074415 | 79 | 157 | 2.6 | 7.8 | 0.00 | 1.27 | 0.04 | 91 | 1013.1 |
| 20260903072915 | 80 | 141 | 1.7 | 6.1 | 0.00 | 1.27 | 0.04 | 91 | 1012.9 |
| 20260903071414 | 79 | 141 | 1.7 | 4.3 | 0.00 | 1.27 | 0.04 | 91 | 1013.1 |
| 20260903065914 | 79 | 141 | 0.9 | 2.6 | 0.01 | 1.26 | 0.04 | 91 | 1013.2 |
| 20260903064414 | 79 | 141 | 0.0 | 1.7 | 0.02 | 1.26 | 0.04 | 91 | 1013.3 |
| 20260903062914 | 79 | 141 | 0.0 | 4.3 | 0.03 | 1.26 | 0.04 | 91 | 1013.4 |
| 20260903061413 | 79 | 157 | 2.6 | 6.1 | 0.04 | 1.26 | 0.04 | 91 | 1013.4 |
| 20260903060615 | 79 | 157 | 5.2 | 9.6 | 0.03 | 1.23 | 0.03 | 91 | 1013.7 |
| 20260903055110 | 79 | 128 | 0.9 | 2.6 | 0.02 | 1.23 | 0.02 | 91 | 1014.0 |
| 20260903052912 | 79 | 128 | 0.0 | 1.7 | 0.01 | 1.23 | 0.01 | 90 | 1014.3 |
| 20260903051412 | 78 | 128 | 0.0 | 2.6 | 0.00 | 1.23 | 0.00 | 90 | 1014.4 |
| 20260903045912 | 78 | 128 | 0.0 | 1.7 | 0.00 | 1.23 | 1.23 | 90 | 1014.7 |
| 20260903044412 | 78 | 128 | 0.9 | 1.7 | 0.00 | 1.23 | 1.23 | 90 | 1014.7 |
| 20260903042910 | 78 | 128 | 0.0 | 1.7 | 0.00 | 1.23 | 1.23 | 90 | 1014.8 |
| 20260903041408 | 78 | 128 | 0.0 | 2.6 | 0.00 | 1.23 | 1.23 | 90 | 1014.5 |
| 20260903035907 | 78 | 128 | 0.0 | 1.7 | 0.00 | 1.23 | 1.23 | 90 | 1014.5 |
| 20260903034404 | 78 | 128 | 0.0 | 2.6 | 0.00 | 1.23 | 1.23 | 90 | 1014.4 |
| 20260903032906 | 77 | 128 | 0.0 | 6.1 | 0.00 | 1.23 | 1.23 | 90 | 1014.4 |
| 20260903031402 | 77 | 127 | 0.0 | 2.6 | 0.00 | 1.23 | 1.23 | 89 | 1014.2 |
| 20260903030613 | 76 | 127 | 1.7 | 2.6 | 0.00 | 1.23 | 1.23 | 89 | 1014.0 |
| 20260903024402 | 76 | 127 | 0.0 | 1.7 | 0.00 | 1.23 | 1.23 | 89 | 1013.9 |
| 20260903022903 | 76 | 127 | 0.0 | 2.6 | 0.03 | 1.23 | 1.23 | 88 | 1013.6 |